Location: Recife
(8.0585°S, 34.8848°W)
Time: 09:45:49
(UTC-03:00)

Transit 2A Rocket - Pass Details

Date: 21 April 2026
Orbit: 587 x 895 km, 66.7° (Epoch: 14 May)

Event Time Altitude Azimuth Distance (km) Brightness Sun altitude
Rises 22:10:54 0° 202° (SSW) 3,440 - -73.0°
Reaches altitude 10° 22:13:21 10° 203° (SSW) 2,527 - -73.5°
Maximum altitude 22:19:17 82° 289° (WNW) 905 - -74.9°
Drops below altitude 10° 22:25:16 10° 17° (NNE) 2,547 - -76.4°
Sets 22:27:44 0° 18° (NNE) 3,469 - -76.9°
